logo meteolazio

Diretta Meteo Genova-Sestri, Italiadomenica 21 aprile ore 04:50

Mappa
Sereno 12 °C Sereno 24 Ore: T.min 11 T.max 21
Ponente Nord-Est Km/h 24 Punto di rugiada: -5 °C Umidità: 30% Visibilità: 10 Km
Il sole sorge alle: 06:28 Il sole tramonta alle: 20:18
21 Aprile 2024 04:50 tempo osservato: Sereno Sereno 12 30 1014 vento: Nord NE 24
21 Aprile 2024 04:20 tempo osservato: Sereno Sereno 12 30 1014 vento: Nord NE 24
21 Aprile 2024 03:50 tempo osservato: Sereno Sereno 12 27 1014 vento: Nord NE 22.2
21 Aprile 2024 03:20 tempo osservato: Sereno Sereno 12 27 1014 vento: Nord N/NE 16.7
21 Aprile 2024 02:50 tempo osservato: Sereno Sereno 12 27 1014 vento: Nord N/NE 11.1
21 Aprile 2024 02:20 tempo osservato: Sereno Sereno 13 24 1014 vento: Nord N/NE 16.7
21 Aprile 2024 01:50 tempo osservato: Sereno Sereno 14 20 1015 vento: Nord E/NE 16.7
21 Aprile 2024 01:20 tempo osservato: Sereno Sereno 15 18 1014 vento: Nord N/NE 18.5
21 Aprile 2024 00:50 tempo osservato: Sereno Sereno 15 16 1014 vento: Nord N/NE 33.3
21 Aprile 2024 00:20 tempo osservato: Sereno Sereno 15 16 1014 vento: Nord N/NE 35.2
20 Aprile 2024 23:50 tempo osservato: Sereno Sereno 16 17 1013 vento: Nord N/NE 35.2
20 Aprile 2024 23:20 tempo osservato: Sereno Sereno 16 17 1013 vento: Nord N/NE 33.3
20 Aprile 2024 22:50 tempo osservato: Sereno Sereno 16 18 1013 vento: Nord N/NE 29.6
20 Aprile 2024 22:20 tempo osservato: Sereno Sereno 16 19 1013 vento: Nord N/NE 24
20 Aprile 2024 21:50 tempo osservato: Sereno Sereno 17 18 1012 vento: Nord N/NE 20.3
20 Aprile 2024 21:20 tempo osservato: Sereno Sereno 17 20 1012 vento: Nord N/NE 18.5
20 Aprile 2024 20:50 tempo osservato: Sereno Sereno 17 18 1011 vento: Nord N 18.5
20 Aprile 2024 20:20 tempo osservato: Sereno Sereno 18 16 1011 vento: Nord N 18.5
20 Aprile 2024 19:50 tempo osservato: Sereno Sereno 19 14 1010 vento: Nord N 16.7
20 Aprile 2024 19:20 tempo osservato: Poco Nuvoloso Poco Nuvoloso 19 14 1010 vento: Nord N 16.7
20 Aprile 2024 18:50 tempo osservato: Poco Nuvoloso Poco Nuvoloso 19 15 1009 vento: Nord N/NE 18.5
20 Aprile 2024 18:20 tempo osservato: Sereno Sereno 20 14 1009 vento: Nord N 24
20 Aprile 2024 17:50 tempo osservato: Sereno Sereno 20 13 1009 vento: Nord N/NE 24
20 Aprile 2024 17:20 tempo osservato: Sereno Sereno 20 14 1009 vento: Nord N 22.2
20 Aprile 2024 16:50 tempo osservato: Poco Nuvoloso Poco Nuvoloso 21 12 1009 vento: Nord N/NO 33.3
20 Aprile 2024 16:20 tempo osservato: Poco Nuvoloso Poco Nuvoloso 21 13 1009 vento: Nord N/NO 27.8
20 Aprile 2024 15:50 tempo osservato: Poco Nuvoloso Poco Nuvoloso 20 12 1009 vento: Nord N 24
20 Aprile 2024 15:20 tempo osservato: Poco Nuvoloso Poco Nuvoloso 21 13 1009 vento: Nord N/NO 24
20 Aprile 2024 14:50 tempo osservato: Poco Nuvoloso Poco Nuvoloso 20 12 1009 vento: Nord N 22.2
20 Aprile 2024 14:20 tempo osservato: Poco Nuvoloso Poco Nuvoloso 20 15 1009 vento: Nord N 27.8
20 Aprile 2024 13:50 tempo osservato: Poco Nuvoloso Poco Nuvoloso 21 19 1009 vento: Nord N 20.3
20 Aprile 2024 13:20 tempo osservato: Poco Nuvoloso Poco Nuvoloso 20 15 1009 vento: Nord N/NO 27.8
20 Aprile 2024 12:50 tempo osservato: Sereno Sereno 20 16 1009 vento: Nord N 25.9
20 Aprile 2024 12:20 tempo osservato: Sereno Sereno 19 17 1009 vento: Nord N/NE 24
20 Aprile 2024 11:50 tempo osservato: Poco Nuvoloso Poco Nuvoloso 18 22 1009 vento: Nord N/NE 24
20 Aprile 2024 11:20 tempo osservato: Poco Nuvoloso Poco Nuvoloso 19 20 1009 vento: Nord N 16.7
20 Aprile 2024 10:50 tempo osservato: Sereno Sereno 18 27 1009 vento: Nord NE 25.9
20 Aprile 2024 10:20 tempo osservato: Poco Nuvoloso Poco Nuvoloso 17 31 1009 vento: Nord N/NO 9.3
20 Aprile 2024 09:50 tempo osservato: Poco Nuvoloso Poco Nuvoloso 16 51 1009 vento: Nord NO 11.1
20 Aprile 2024 09:20 tempo osservato: Sereno Sereno 15 54 1009 vento: Nord N/NE 7.4
20 Aprile 2024 08:50 tempo osservato: Sereno Sereno 14 54 1008 vento: Nord NE 9.3
20 Aprile 2024 08:20 tempo osservato: Sereno Sereno 13 58 1008 vento: Nord NE 11.1
20 Aprile 2024 07:50 tempo osservato: Sereno Sereno 13 58 1008 vento: Nord N 5.5
20 Aprile 2024 07:20 tempo osservato: Sereno Sereno 12 62 1008 vento: Nord NE 9.3
20 Aprile 2024 06:50 tempo osservato: Sereno Sereno 12 62 1008 vento: Nord NE 14.8
20 Aprile 2024 06:20 tempo osservato: Sereno Sereno 11 66 1007 vento: Nord NE 14.8
20 Aprile 2024 05:50 tempo osservato: Sereno Sereno 11 71 1007 vento: Nord NE 14.8